Location: *
(51.0333°S, 178.4667°E)
Time: 11:59:16
(UTC+00:00)

Cosmos 2084 Rocket - Pass Details

Date: 15 November 2019
Orbit: 573 x 609 km, 62.8° (Epoch: 11 December)

Event Time Altitude Azimuth Distance (km) Brightness Sun altitude
Rises 11:03:31 0° 226° (SW) 2,822 7.9 -19.7°
Reaches altitude 10° 11:05:47 10° 223° (SW) 1,919 6.9 -19.8°
Maximum altitude 11:10:06 74° 138° (SE) 617 3.5 -19.9°
Enters shadow 11:11:38 39° 62° (ENE) 889 4.0 -20.0°
